FALCON 9 DEB (46388 NORAD) Tracking and Keplerian Element Data

This shows tracking and keplerian element data for the satellite.

Feedback or suggestion? Click here.




ElementValue
Catalog46388
NameFALCON 9 DEB
Epoch Orbit474
Epoch Day272.9734817
Epoch Year2020
RAAN297.887
Inclination52.9872
Eccentricity0.0016863
Argument of Perigee135.3994
Mean Anonmoly224.8411
Mean Motion16.38586186
Decay Rate0.05472627
L11 46388U 20062BR 20272.97348170 .05472627 12200-4 44070-3 0 9991
L22 46388 52.9872 297.8870 0016863 135.3994 224.8411 16.38586186 4742

Live tracking and technical data element details for FALCON 9 DEB (NORAD 46388). FALCON 9 DEB can be tracked NOW for your location showing map with azimuth and elevation plus other details from your city location.

Track the satellite on the map from your city or location and see movement details for azimuth, elevation, latitude, longitude, range, height, and movement on the map or in text.







IsCatalogInMostPopularTable: catalog: 46388, numindb: 22
Update: records affected: 1



GetName: 46388 FALCON 9 DEB

Hit Count: updated at: Thu, 26 Nov 2020 23:03:50 GMT